sat.trackr.live / text

‹ back to catalog

STARLINK-35377

NORAD 66185 · 2025-243J

PAYLOAD ACTIVE UNKNOWN

§ Identity

Operator
Country
US
Launch date
2025-10-26
Launch site
AFETR
Launch vehicle
Mass (kg)
RCS (m²)

Purposes: comms

External: N2YO · Heavens-Above · Gunter

§ Orbital elements

Epoch: 2026-05-24T23:57:00.243072Z

Period
94.11 min
Inclination
53.1566°
Eccentricity
0.0001231
Mean motion
15.30199103 rev/d
Perigee alt
474.4 km
Apogee alt
476.1 km
Semi-major
6,853.4 km
B*
8.1430e-4
RAAN
251.0437°
Arg perigee
79.4917°
Mean anomaly
280.6222°
Rev number
3,233

§ Raw data

STARLINK-353771 66185U 25243J   26144.99791948  .00023835  00000+0  81430-3 0  99942 66185  53.1566 251.0437 0001231  79.4917 280.6222 15.30199103 32335

JSON: /api/v1/satellites/66185 · /tle

For live sub-satellite position, see the globe view (requires WebGL).

§ Visibility from observer

Set your observer location to see the next 7 days of passes ≥ 10°. The values pass through the URL so the page stays shareable.

No JS? Fill the form by hand. The geolocation button needs JavaScript.